Theta_e
298 297 299 299 301 301 301 302 302 302 302 301 301 300 300 300 300 300 301 301 302 305 308 310 309 309 312 313 313 314 315 313 314 300 307 310 313 313 312 312 313 310 309
297 296 297 298 299 299 300 300 300 300 299 300 299 299 299 299 299 301 301 302 303 305 305 306 308 310 309 313 312 314 312 311 307 301 301 304 309 312 311 309 309 308 307
296 295 296 296 297 299 300 301 300 300 299 299 298 298 297 298 299 299 298 298 298 298 300 300 302 307 310 311 313 312 312 312 310 304 301 304 306 309 309 308 308 306 306
296 295 294 295 296 297 298 299 299 299 298 297 297 296 296 296 296 295 295 294 294 295 295 297 300 302 305 309 312 312 311 310 307 305 304 303 305 307 306 305 304 304 303
295 294 293 294 295 295 296 296 296 296 296 295 295 295 294 295 295 294 294 293 292 292 293 294 296 299 302 304 310 310 309 307 304 303 302 303 303 304 304 304 302 302 302
295 294 294 294 293 293 294 294 294 295 294 294 294 294 294 293 293 294 293 293 293 292 292 293 294 296 298 300 303 308 309 308 303 302 302 302 303 303 303 302 300 300 297
295 294 293 293 293 292 293 293 293 293 293 293 293 293 293 293 293 293 292 292 292 291 292 292 293 294 296 298 300 302 307 309 308 304 301 302 302 302 301 300 299 300 298
294 294 293 292 292 292 292 292 292 292 292 292 292 292 292 293 292 292 292 291 291 291 291 292 292 293 294 294 296 299 301 305 307 306 304 303 304 302 302 300 299 299 295
295 294 293 293 292 292 291 291 292 292 291 292 292 291 291 292 292 292 292 292 291 291 290 290 290 290 291 291 293 295 299 302 303 307 305 304 302 302 301 298 298 292 292
295 294 293 292 292 292 291 291 291 291 291 291 291 291 291 291 292 292 292 292 292 291 290 289 289 289 289 290 291 292 294 298 301 300 301 301 301 300 299 298 295 292 292
294 293 293 293 293 293 292 291 291 291 291 291 292 291 290 290 291 291 291 291 291 291 289 289 288 288 288 289 289 289 291 295 300 301 301 300 300 299 297 297 295 294 292
293 292 292 292 293 292 292 291 290 290 290 289 289 289 289 290 290 290 290 290 291 289 288 288 288 288 288 288 288 289 290 292 296 298 297 296 296 297 296 296 295 294 296
293 292 292 292 291 291 291 290 289 289 289 289 288 288 289 289 289 289 289 289 288 287 287 287 287 287 287 288 289 291 292 291 293 295 295 294 295 295 295 293 293 293 292
293 292 291 291 291 290 290 289 289 289 289 289 288 289 289 289 289 289 288 288 287 287 287 287 285 287 288 289 290 291 291 291 292 294 295 293 294 293 291 291 291 290 289
292 291 291 290 290 290 290 289 288 288 289 289 289 289 289 289 290 289 288 288 287 287 286 286 286 288 289 289 290 290 291 291 293 294 293 291 291 290 290 290 290 288 289
291 290 290 290 289 289 290 289 288 288 289 288 288 289 289 289 290 290 289 287 287 286 286 287 288 288 289 289 289 290 291 292 293 293 292 291 290 290 289 289 289 289 288
291 290 289 289 289 290 289 288 288 288 288 288 288 288 288 289 289 290 290 289 288 288 287 288 288 288 288 289 289 289 290 291 292 291 291 290 290 289 288 289 288 289 287
289 289 289 289 289 288 287 288 288 289 288 287 287 287 287 287 288 289 289 288 288 289 288 287 288 287 288 288 288 289 290 290 290 290 289 289 289 289 288 289 288 288 286
288 287 287 287 287 287 287 287 288 289 287 287 286 286 286 287 287 288 289 289 288 288 288 287 287 287 287 288 288 289 289 290 289 289 289 289 289 288 288 288 288 287 286
287 286 286 286 286 286 287 287 287 287 286 286 287 287 287 287 286 287 289 289 289 289 289 287 287 287 287 287 288 288 289 289 289 289 288 288 288 288 288 288 287 286 285
284 285 284 284 285 285 286 286 285 285 286 286 286 285 286 286 286 286 287 288 289 289 288 288 287 287 287 287 287 287 288 288 288 288 288 288 288 288 288 287 286 286 285
282 282 283 284 284 284 284 284 284 285 284 285 284 284 285 284 285 285 285 286 287 288 288 287 287 287 287 286 287 287 287 288 288 288 288 288 287 288 287 287 286 285 285
279 281 282 281 281 281 281 281 282 283 283 284 283 284 284 284 284 284 284 285 286 287 288 288 287 287 286 286 286 286 286 288 288 288 288 287 287 287 287 286 286 286 285
277 277 278 279 279 279 279 279 279 280 281 282 283 283 283 283 284 283 283 284 284 285 287 287 287 287 286 286 286 286 286 287 288 288 288 287 287 287 286 286 286 285 285
276 276 277 277 277 277 277 277 278 279 280 280 281 282 282 282 283 282 283 282 282 283 284 286 288 287 286 286 285 285 285 286 287 287 287 287 287 286 286 285 285 285 285
275 276 276 276 276 276 276 276 276 277 278 279 279 280 281 280 281 282 282 281 282 282 282 284 286 287 286 286 285 285 285 285 287 287 287 287 287 286 285 285 285 285 284
Wind_Speed
26 27 25 27 25 26 25 23 15 15 16 17 19 21 20 19 19 19 22 22 20 20 19 13 19 21 24 20 18 11 17 18 8 7 28 31 39 44 50 52 58 58 59
21 23 20 24 22 23 23 21 18 17 18 17 19 20 21 20 21 20 22 21 17 14 17 19 17 20 21 22 19 19 18 8 7 9 16 26 28 47 52 52 54 49 53
19 21 20 21 24 21 23 22 17 17 18 17 19 21 22 22 22 16 15 19 18 17 17 20 21 17 21 21 23 22 24 21 19 14 9 24 20 35 43 48 55 49 53
18 22 20 21 24 22 21 20 19 19 18 23 23 22 22 21 11 22 23 24 23 20 19 18 18 18 22 22 19 21 24 22 23 22 19 22 22 27 39 39 34 42 41
17 18 18 20 22 22 22 21 20 22 22 21 19 20 21 20 15 22 24 23 21 21 19 16 15 14 16 18 19 20 20 22 19 18 18 21 17 20 27 33 37 39 42
14 15 17 16 18 21 21 20 21 19 19 22 22 21 21 19 19 20 20 20 19 19 16 19 18 16 16 18 11 20 20 23 23 17 18 20 27 27 23 32 35 37 13
11 12 13 17 18 16 19 18 19 19 18 20 20 20 21 21 21 22 23 22 19 14 14 15 15 15 17 17 14 13 25 33 34 36 26 27 27 40 34 31 35 47 34
12 13 12 13 16 16 17 16 17 17 18 19 20 21 22 22 21 21 20 19 18 16 19 19 16 15 16 18 19 16 17 30 40 36 37 43 45 46 52 50 44 37 30
14 9 11 11 12 14 14 15 15 17 19 18 18 20 24 24 20 19 19 19 18 20 20 18 18 21 19 19 19 21 19 20 34 38 41 37 43 55 54 33 28 29 24
15 9 10 11 11 11 12 13 15 17 18 16 18 19 23 22 20 19 19 21 22 21 22 21 19 17 20 20 17 15 19 18 21 31 28 30 39 46 51 54 43 33 33
8 7 10 14 10 9 10 13 14 17 18 20 20 20 21 21 23 22 20 22 23 17 19 25 24 23 23 24 21 19 18 18 17 31 35 29 37 41 48 46 54 51 40
8 7 11 10 8 7 9 12 13 14 17 18 19 19 21 20 21 20 21 20 16 24 24 24 27 30 31 31 30 26 24 22 21 27 29 30 35 39 43 49 48 46 56
8 7 10 8 7 7 7 11 12 13 15 16 17 17 19 22 22 20 20 21 25 24 23 25 27 29 30 31 29 28 26 26 20 26 28 30 37 41 41 39 40 35 35
5 1 5 7 4 6 8 8 11 13 13 14 16 16 18 22 23 22 22 26 25 24 22 22 26 24 24 26 29 27 26 27 25 27 26 27 34 35 37 40 39 33 31
8 3 5 7 10 12 13 9 10 11 12 16 18 19 19 19 23 23 22 24 24 24 26 22 21 19 20 20 22 25 25 25 26 28 27 28 30 34 34 37 37 35 29
10 7 5 3 8 14 8 10 13 14 12 12 14 16 24 21 24 19 21 21 21 21 22 18 19 19 19 19 21 20 19 23 27 28 27 32 32 33 33 34 36 38 33
11 8 2 6 14 11 11 14 13 18 10 14 13 14 20 21 22 20 20 21 22 18 16 18 18 19 19 20 21 20 13 16 22 28 31 30 31 32 35 35 35 35 30
7 3 2 5 10 13 16 18 20 15 11 14 16 16 19 22 24 21 21 20 21 20 19 18 18 19 19 19 20 20 13 12 18 20 24 28 31 33 33 33 35 34 33
7 6 7 9 11 13 16 20 18 13 13 14 17 19 20 22 24 20 20 17 17 18 20 18 18 18 20 21 20 19 12 15 20 21 22 26 30 33 33 33 35 34 36
12 9 8 10 12 16 16 14 15 10 17 17 17 20 21 23 21 20 20 20 19 18 20 19 19 21 21 21 18 17 15 12 17 20 22 25 28 31 31 32 33 34 35
18 13 12 13 13 15 15 15 13 18 16 17 18 22 17 19 22 20 20 21 20 21 21 20 19 21 22 20 16 15 15 16 17 19 22 25 27 27 28 31 30 34 33
19 19 18 14 14 15 15 16 18 17 19 19 19 23 21 23 22 23 21 21 24 25 24 24 21 21 21 20 16 16 15 16 19 20 22 23 27 27 29 30 31 32 32
21 20 18 17 17 17 16 17 20 23 24 20 22 22 24 23 23 25 25 24 28 26 27 25 22 22 21 19 17 17 18 18 21 25 24 24 25 25 29 30 32 31 32
22 21 20 20 20 20 20 20 22 24 25 25 24 24 22 23 23 24 26 27 27 30 25 25 23 21 20 19 18 17 18 20 23 26 30 28 26 29 29 30 32 33 34
22 23 22 20 21 21 23 23 23 23 23 24 28 24 25 24 21 26 23 26 28 27 30 27 23 22 19 19 18 17 16 18 23 27 31 31 29 32 30 31 32 33 34
22 21 21 21 21 21 20 21 22 23 23 23 25 27 22 25 24 22 22 25 24 29 30 28 23 24 20 18 17 15 15 17 22 30 33 32 30 32 32 33 35 34 36
Wind_Direction
355 350 347 346 353 352 344 343 356 356 356 347 341 340 345 336 333 316 320 319 305 309 322 300 291 289 276 260 260 246 212 190 178 179 195 183 181 184 183 180 185 181 183
350 348 342 335 336 347 355 357 359 359 358 354 348 344 343 342 339 333 326 324 329 332 335 325 324 332 291 234 235 227 228 202 150 157 178 188 186 181 178 172 176 176 177
350 344 343 340 338 335 343 340 345 349 353 357 355 350 347 345 343 356 358 341 335 336 333 336 333 313 303 266 207 215 225 218 196 169 146 176 181 179 175 174 172 171 175
347 340 339 336 325 332 340 349 358 2 359 350 349 345 347 344 349 351 343 338 333 334 331 326 324 332 301 290 216 217 206 193 186 171 169 168 172 176 171 161 161 166 165
344 337 335 335 325 329 329 333 338 338 340 338 337 337 340 341 338 342 342 343 350 346 341 339 326 334 330 325 260 230 194 176 173 174 163 160 157 166 176 168 159 159 160
326 331 330 324 319 321 327 335 337 332 337 338 339 334 332 330 329 335 338 338 336 336 334 334 336 343 335 323 337 238 238 199 177 169 172 163 172 179 173 168 160 152 143
309 315 311 314 312 317 327 334 331 331 335 341 340 340 334 326 324 330 333 332 334 337 335 331 331 325 322 331 327 310 241 224 216 190 176 178 174 177 174 171 174 165 164
291 287 300 315 313 316 328 328 324 328 332 333 332 337 335 331 328 330 337 334 329 331 330 327 322 323 319 324 317 312 299 230 214 207 199 189 191 181 182 181 177 167 154
269 256 302 303 313 314 319 319 324 330 334 336 334 334 337 337 336 336 338 334 325 321 324 322 324 323 317 322 314 305 298 260 226 221 212 210 193 190 183 168 164 148 156
266 265 290 294 285 306 312 318 325 330 332 327 332 336 342 339 338 335 337 332 324 321 320 321 314 311 315 312 305 289 280 284 237 217 205 194 191 188 179 181 167 163 159
244 281 287 289 280 302 313 323 327 331 332 335 336 334 340 342 337 335 331 327 324 322 319 316 312 311 309 305 301 288 271 266 266 224 214 201 192 187 185 183 180 171 170
234 268 293 286 281 306 312 320 325 330 336 335 337 332 336 338 334 331 326 323 319 326 314 310 309 311 307 302 296 290 278 268 253 215 200 187 182 186 186 188 188 189 195
228 266 287 272 298 317 330 324 323 326 330 328 330 323 328 333 334 330 326 319 316 315 308 305 306 308 314 311 305 298 288 267 244 210 200 191 188 186 183 182 186 187 188
189 271 326 313 302 323 316 314 316 316 320 323 323 319 320 327 330 330 327 325 321 317 312 308 313 319 308 302 302 299 277 254 225 211 202 186 180 176 175 176 173 174 166
199 220 293 283 298 302 294 285 316 313 317 324 322 319 313 315 319 323 321 317 311 309 310 308 309 309 309 307 305 297 276 244 219 205 184 172 173 172 176 176 175 166 169
191 212 227 286 312 310 302 308 317 317 312 313 320 321 324 324 327 321 314 316 313 313 308 297 305 308 308 309 307 303 260 223 204 190 179 175 174 174 171 173 172 173 166
187 188 168 335 317 299 317 316 308 311 309 325 319 323 329 331 331 324 317 317 327 332 308 297 302 306 308 309 308 306 262 219 194 181 176 174 173 173 170 171 173 173 168
69 62 343 301 308 314 318 309 306 290 307 325 322 324 328 336 335 333 334 327 320 321 311 303 301 306 306 303 312 308 276 217 189 180 175 171 170 169 171 173 175 173 167
319 326 317 303 308 305 300 304 301 293 310 313 318 320 330 332 334 332 334 324 313 298 299 302 299 303 307 308 315 307 268 208 190 180 175 172 172 171 174 174 175 170 166
265 274 278 289 301 298 301 306 316 325 320 319 312 323 325 333 334 326 324 318 307 302 300 295 300 307 309 310 304 305 276 225 192 180 176 174 174 174 174 172 171 166 170
339 335 333 316 305 309 311 314 323 321 315 319 321 328 327 329 323 317 322 318 313 313 304 299 298 304 308 307 295 297 254 227 202 186 176 175 172 173 172 172 168 168 166
330 318 308 306 320 316 316 313 311 306 309 308 315 319 319 324 320 319 313 318 318 311 311 307 299 301 304 299 290 281 260 221 204 191 181 177 175 173 168 168 165 166 165
346 336 332 329 324 321 324 321 316 308 299 297 308 306 311 313 314 318 317 315 323 317 313 309 300 300 299 295 282 274 263 236 208 199 185 179 175 172 169 167 166 166 166
324 318 315 313 313 310 308 307 306 304 300 293 295 299 302 304 306 313 314 319 318 326 313 308 299 298 296 289 281 275 263 251 224 205 194 180 174 170 168 168 168 168 166
312 307 302 299 300 297 294 291 287 287 293 294 297 297 300 302 305 311 313 320 319 320 325 315 297 298 297 286 278 274 263 249 229 215 196 184 175 170 167 165 163 164 163
305 300 297 294 291 289 288 288 288 289 288 288 290 292 292 299 300 306 311 319 319 321 319 324 300 299 294 284 278 271 257 246 227 213 199 186 175 172 169 168 166 167 166